When you browse on this site, cookies collect data to enhance your experience and personalize the content and advertising you see.
Visit our Privacy Policy to learn more. By continuing to use the site, you agree to this use of cookies and data.
  • In Slovakia
  • List of Countries
  • For 7 days
  • Water Temperature
  • Weather Map
  • Weather Widgets
  • user-avatar
    Login

    Hourly Weather Yaroshevka

    Today, 19 August, Monday

    Time Temperature Precipitation Wind Pressure Humidity
    00:00 +16°C° 0 mm 2 mps 739 mmHg 89%
    01:00 +16°C° 0 mm 2 mps 740 mmHg 90%
    02:00 +16°C° 0 mm 2 mps 740 mmHg 89%
    03:00 +16°C° 0 mm 3 mps 740 mmHg 90%
    04:00 +14°C° 0 mm 3 mps 739 mmHg 91%
    05:00 +14°C° 0 mm 3 mps 739 mmHg 92%
    06:00 +17°C° 0 mm 3 mps 740 mmHg 88%
    07:00 +18°C° 0 mm 3 mps 740 mmHg 84%
    08:00 +20°C° 0 mm 4 mps 740 mmHg 80%
    09:00 +22°C° 0 mm 4 mps 740 mmHg 76%
    10:00 +23°C° 0 mm 4 mps 740 mmHg 72%
    11:00 +26°C° 0 mm 5 mps 741 mmHg 68%
    12:00 +27°C° 0.1 mm 5 mps 741 mmHg 67%
    13:00 +28°C° 0.1 mm 5 mps 741 mmHg 66%
    14:00 +28°C° 0.1 mm 5 mps 741 mmHg 64%
    15:00 +28°C° 0.7 mm 4 mps 741 mmHg 69%
    16:00 +27°C° 0.7 mm 4 mps 741 mmHg 73%
    17:00 +27°C° 0.7 mm 3 mps 741 mmHg 77%
    18:00 +25°C° 0 mm 3 mps 741 mmHg 81%
    19:00 +24°C° 0 mm 2 mps 741 mmHg 86%
    20:00 +23°C° 0 mm 2 mps 741 mmHg 90%
    21:00 +21°C° 1 mm 2 mps 741 mmHg 91%
    22:00 +21°C° 1 mm 2 mps 742 mmHg 93%
    23:00 +20°C° 1 mm 2 mps 742 mmHg 94%

    Tomorrow, 20 August, Tuesday

    Time Temperature Precipitation Wind Pressure Humidity
    00:00 +20°C° 1 mm 2 mps 742 mmHg 95%
    01:00 +20°C° 1 mm 2 mps 742 mmHg 96%
    02:00 +19°C° 1 mm 2 mps 742 mmHg 97%
    03:00 +19°C° 0 mm 2 mps 743 mmHg 97%
    04:00 +19°C° 0 mm 2 mps 743 mmHg 97%
    05:00 +19°C° 0 mm 2 mps 743 mmHg 97%
    06:00 +19°C° 0.7 mm 2 mps 743 mmHg 95%
    07:00 +20°C° 0.7 mm 2 mps 743 mmHg 94%
    08:00 +20°C° 0.7 mm 2 mps 744 mmHg 93%
    09:00 +21°C° 0 mm 2 mps 744 mmHg 88%
    10:00 +23°C° 0 mm 2 mps 744 mmHg 83%
    11:00 +24°C° 0 mm 2 mps 744 mmHg 79%
    12:00 +25°C° 0.2 mm 2 mps 745 mmHg 78%
    13:00 +25°C° 0.2 mm 2 mps 745 mmHg 77%
    14:00 +25°C° 0.2 mm 2 mps 745 mmHg 76%
    15:00 +25°C° 0.3 mm 2 mps 745 mmHg 77%
    16:00 +25°C° 0.3 mm 3 mps 745 mmHg 78%
    17:00 +25°C° 0.3 mm 3 mps 745 mmHg 79%
    18:00 +22°C° 0 mm 3 mps 745 mmHg 83%
    19:00 +21°C° 0 mm 3 mps 745 mmHg 88%
    20:00 +19°C° 0 mm 2 mps 746 mmHg 92%
    21:00 +19°C° 0 mm 2 mps 746 mmHg 92%
    22:00 +18°C° 0 mm 2 mps 746 mmHg 93%
    23:00 +18°C° 0 mm 2 mps 746 mmHg 94%

    Day after tomorrow, 21 August, Wednesday

    Time Temperature Precipitation Wind Pressure Humidity
    00:00 +18°C° 0 mm 2 mps 746 mmHg 94%
    01:00 +17°C° 0 mm 2 mps 746 mmHg 94%
    02:00 +17°C° 0 mm 2 mps 746 mmHg 94%
    03:00 +17°C° 0 mm 2 mps 746 mmHg 95%
    04:00 +17°C° 0 mm 2 mps 745 mmHg 95%
    05:00 +17°C° 0 mm 2 mps 745 mmHg 96%
    06:00 +18°C° 0 mm 2 mps 745 mmHg 94%
    07:00 +19°C° 0 mm 2 mps 745 mmHg 93%
    08:00 +20°C° 0 mm 2 mps 745 mmHg 91%
    09:00 +21°C° 0 mm 2 mps 745 mmHg 88%
    10:00 +23°C° 0 mm 2 mps 745 mmHg 85%
    11:00 +24°C° 0 mm 2 mps 745 mmHg 82%
    12:00 +25°C° 0.1 mm 2 mps 745 mmHg 81%
    13:00 +25°C° 0.1 mm 1 mps 744 mmHg 79%
    14:00 +26°C° 0.1 mm 1 mps 744 mmHg 78%
    15:00 +25°C° 1.2 mm 1 mps 744 mmHg 81%
    16:00 +24°C° 1.2 mm 1 mps 744 mmHg 85%
    17:00 +24°C° 1.2 mm 2 mps 744 mmHg 89%
    18:00 +23°C° 1.1 mm 2 mps 744 mmHg 91%
    19:00 +21°C° 1.1 mm 2 mps 744 mmHg 93%
    20:00 +20°C° 1.1 mm 2 mps 744 mmHg 95%
    21:00 +19°C° 0.7 mm 3 mps 744 mmHg 95%
    22:00 +19°C° 0.7 mm 4 mps 744 mmHg 95%
    23:00 +18°C° 0.7 mm 4 mps 744 mmHg 95%

    22 August, Thursday

    Time Temperature Precipitation Wind Pressure Humidity
    00:00 +18°C° 0 mm 4 mps 745 mmHg 94%
    01:00 +17°C° 0 mm 4 mps 745 mmHg 93%
    02:00 +17°C° 0 mm 4 mps 745 mmHg 92%
    03:00 +17°C° 0 mm 4 mps 745 mmHg 92%
    04:00 +15°C° 0 mm 5 mps 745 mmHg 91%
    05:00 +15°C° 0 mm 5 mps 745 mmHg 91%
    06:00 +15°C° 0 mm 5 mps 745 mmHg 91%
    07:00 +15°C° 0 mm 5 mps 745 mmHg 91%
    08:00 +15°C° 0 mm 4 mps 746 mmHg 91%
    09:00 +15°C° 0 mm 4 mps 746 mmHg 90%
    10:00 +17°C° 0 mm 4 mps 746 mmHg 88%
    11:00 +17°C° 0 mm 4 mps 746 mmHg 86%
    12:00 +18°C° 0 mm 4 mps 746 mmHg 83%
    13:00 +19°C° 0 mm 4 mps 746 mmHg 79%
    14:00 +20°C° 0 mm 4 mps 747 mmHg 76%
    15:00 +19°C° 0 mm 4 mps 747 mmHg 76%
    16:00 +19°C° 0 mm 4 mps 747 mmHg 76%
    17:00 +19°C° 0 mm 3 mps 747 mmHg 76%
    18:00 +18°C° 0 mm 3 mps 747 mmHg 79%
    19:00 +17°C° 0 mm 2 mps 747 mmHg 83%
    20:00 +16°C° 0 mm 2 mps 747 mmHg 87%
    21:00 +16°C° 0 mm 2 mps 747 mmHg 88%
    22:00 +15°C° 0 mm 2 mps 747 mmHg 88%
    23:00 +15°C° 0 mm 2 mps 747 mmHg 89%

    23 August, Friday

    Time Temperature Precipitation Wind Pressure Humidity
    00:00 +14°C° 0 mm 2 mps 748 mmHg 91%
    01:00 +14°C° 0 mm 2 mps 748 mmHg 92%
    02:00 +14°C° 0 mm 2 mps 748 mmHg 93%
    03:00 +13°C° 0 mm 2 mps 748 mmHg 93%
    04:00 +13°C° 0 mm 2 mps 748 mmHg 93%
    05:00 +13°C° 0 mm 2 mps 748 mmHg 94%
    06:00 +14°C° 0 mm 2 mps 748 mmHg 89%
    07:00 +16°C° 0 mm 2 mps 748 mmHg 85%
    08:00 +17°C° 0 mm 2 mps 748 mmHg 80%
    09:00 +18°C° 0 mm 2 mps 748 mmHg 75%
    10:00 +20°C° 0 mm 2 mps 748 mmHg 70%
    11:00 +21°C° 0 mm 2 mps 749 mmHg 64%
    12:00 +23°C° 0 mm 2 mps 749 mmHg 61%
    13:00 +23°C° 0 mm 2 mps 749 mmHg 58%
    14:00 +24°C° 0 mm 2 mps 748 mmHg 54%
    15:00 +22°C° 0 mm 3 mps 748 mmHg 56%
    16:00 +22°C° 0 mm 3 mps 748 mmHg 58%
    17:00 +21°C° 0 mm 3 mps 748 mmHg 60%
    18:00 +19°C° 0 mm 2 mps 748 mmHg 65%
    19:00 +18°C° 0 mm 2 mps 748 mmHg 69%
    20:00 +16°C° 0 mm 2 mps 748 mmHg 73%
    21:00 +15°C° 0 mm 2 mps 749 mmHg 75%
    22:00 +15°C° 0 mm 2 mps 749 mmHg 78%
    23:00 +14°C° 0 mm 2 mps 749 mmHg 80%

    24 August, Saturday

    Time Temperature Precipitation Wind Pressure Humidity
    00:00 +14°C° 0 mm 1 mps 749 mmHg 81%
    01:00 +13°C° 0 mm 1 mps 749 mmHg 81%
    02:00 +13°C° 0 mm 1 mps 749 mmHg 81%
    03:00 +13°C° 0 mm 1 mps 749 mmHg 83%
    04:00 +12°C° 0 mm 1 mps 749 mmHg 84%
    05:00 +12°C° 0 mm 1 mps 749 mmHg 86%
    06:00 +14°C° 0 mm 1 mps 749 mmHg 82%
    07:00 +15°C° 0 mm 1 mps 749 mmHg 78%
    08:00 +18°C° 0 mm 1 mps 750 mmHg 74%
    09:00 +19°C° 0 mm 1 mps 750 mmHg 68%
    10:00 +21°C° 0 mm 1 mps 750 mmHg 63%
    11:00 +21°C° 0 mm 2 mps 750 mmHg 58%
    12:00 +21°C° 0 mm 2 mps 750 mmHg 56%
    13:00 +23°C° 0 mm 2 mps 750 mmHg 53%
    14:00 +24°C° 0 mm 2 mps 749 mmHg 51%
    15:00 +23°C° 0 mm 2 mps 749 mmHg 54%
    16:00 +23°C° 0 mm 2 mps 749 mmHg 56%
    17:00 +23°C° 0 mm 2 mps 749 mmHg 59%
    18:00 +20°C° 0 mm 2 mps 749 mmHg 64%
    19:00 +18°C° 0 mm 2 mps 749 mmHg 69%
    20:00 +17°C° 0 mm 2 mps 748 mmHg 74%
    21:00 +16°C° 0 mm 2 mps 748 mmHg 77%
    22:00 +15°C° 0 mm 2 mps 749 mmHg 79%
    23:00 +14°C° 0 mm 3 mps 749 mmHg 82%
    Show more